Preview of NWS' New Version of Forecast
This preview is not operational and should not be used for support decisions.

Regional Weather Roundup (RWR)

Issued by National Weather Service (NWS)

                            
000
ASUS43 KDMX 152101
RWRIA 

WEATHER ROUNDUP FOR IOWA
NATIONAL WEATHER SERVICE DES MOINES IA
400 PM CDT SUN SEP 15 2019

NOTE: "FAIR" INDICATES FEW OR NO CLOUDS BELOW 12,000 FEET WITH NO
SIGNIFICANT WEATHER AND/OR OBSTRUCTIONS TO VISIBILITY.

* - THESE STATIONS ARE NOT NWS STATIONS...THUS NOT UNDER NWS
QUALITY CONTROL.  THEY ALSO DO NOT REPORT WEATHER SUCH 
AS PRECIPITATION OR FOG.  

IAZ001>003-012>014-020>022-031>034-043>046-152200-
   NORTHWEST IOWA
  
CITY           SKY/WX    TMP DP  RH WIND       PRES   REMARKS
CARROLL *      SUNNY     84  68  58 CALM      30.00S HX  87           
CHEROKEE *     SUNNY     85  66  53 SE5       30.00F HX  87           
DENISON *      SUNNY     88  70  55 NE7       30.00F HX  92           
LE MARS *      SUNNY     84  68  58 SE10      29.99S HX  87           
SHELDON *      SUNNY     82  72  69 SE7       29.99F HX  87           
SIOUX CITY     SUNNY     88  70  55 VRB3      29.98F HX  93           
SPENCER        SUNNY     86  66  51 SW7       30.01S HX  88           
STORM LAKE *   SUNNY     82  66  57 E6        29.98F HX  85           
$$
 
IAZ055>058-069>071-079>083-090>094-152200-
   SOUTHWEST IOWA
  
CITY           SKY/WX    TMP DP  RH WIND       PRES   REMARKS
ATLANTIC *     SUNNY     88  70  55 CALM      29.98S HX  92           
AUDUBON *        N/A     88  70  55 CALM      30.01F HX  92           
CLARINDA *     SUNNY     90  72  55 S7        30.00F HX  96           
COUNCIL BLFS * SUNNY     90  66  45 S7        29.97S HX  92           
CRESTON *      SUNNY     88  70  55 SW7       30.00S HX  92           
LAMONI         SUNNY     87  72  60 SW10      30.00F HX  93           
RED OAK *      SUNNY     90  70  51 S5        29.98F HX  95           
SHENANDOAH *   SUNNY     90  70  51 VRB5      29.97F HX  95           
$$
 
IAZ047>049-059>061-072>074-084-152200-
   CENTRAL IOWA
  
CITY           SKY/WX    TMP DP  RH WIND       PRES   REMARKS
AMES           SUNNY     84  73  69 N5        29.98F HX  90           
ANKENY *       SUNNY     86  72  62 NW9       29.98F HX  92           
BOONE *        SUNNY     84  75  74 VRB6      29.99S HX  92           
CHARITON *     SUNNY     88  75  66 W8        29.98S HX  97           
DES MOINES     MOSUNNY   88  69  53 W8        29.97S HX  92           
GRINNELL*      SUNNY     86  72  62 W7        29.99S HX  92           
KNOXVILLE *    SUNNY     88  72  58 W8        29.97S HX  94           
MARSHALLTOWN   SUNNY     83  73  72 W5        29.98S HX  89           
NEWTON *       SUNNY     88  72  58 NW7       29.97S HX  94           
PELLA *          N/A     89  70  52 NW8       29.98S HX  94           
PERRY *        FAIR      85  71  62 NW6       29.99S HX  91           
$$
 
IAZ004>006-015-016-023>025-035-036-152200-
   NORTH CENTRAL IOWA
  
CITY           SKY/WX    TMP DP  RH WIND       PRES   REMARKS
ALGONA *       SUNNY     84  63  48 CALM      30.00S HX  85           
CLARION *      SUNNY     86  64  48 N5        30.00S HX  87           
ESTHERVILLE    SUNNY     80  64  58 SE6       30.01S HX  82           
FORT DODGE *   SUNNY     84  68  58 NW3       30.01F HX  87           
MASON CITY     SUNNY     85  59  41 N3        30.02S HX  84           
FOREST CITY *  FAIR      82  61  47 CALM      30.01S HX  83           
IOWA FALLS *     N/A     85  66  53 NW8       30.01S HX  87           
$$

IAZ007>011-017>019-026>030-037>042-050>054-066-152200-
   NORTHEAST IOWA
  
CITY           SKY/WX    TMP DP  RH WIND       PRES   REMARKS
CEDAR RAPIDS   FAIR      82  72  71 W9        29.97S HX  87           
CHARLES CITY * FAIR      81  66  61 NE6       30.00S HX  83           
CLINTON *        N/A     82  74  76 W8        29.98R HX  88           
DECORAH *      FAIR      77  68  73 CALM      29.98F                  
DUBUQUE        CLOUDY    78  72  81 W7        30.00R HX  80           
MONTICELLO *   CLOUDY    82  75  78 W7        29.98S HX  89           
OELWEIN *      CLOUDY    79  75  89 N13       29.99S HX  82           
WATERLOO       FAIR      88  72  58 NW5       29.96F HX  94           
$$
 
IAZ064-065-067-068-078-152200-
   EAST CENTRAL IOWA
  
CITY           SKY/WX    TMP DP  RH WIND       PRES   REMARKS
DAVENPORT      CLOUDY    83  71  67 W9        29.99R HX  87           
IOWA CITY      PTSUNNY   87  73  62 W9        29.97F HX  94           
MUSCATINE *    FAIR      86  73  66 W10       29.96F HX  93           
QUAD CITIES    CLOUDY    84  71  65 W7        29.96S HX  89           
$$
 
IAZ062-063-075>077-085>089-095>099-152200-
   SOUTHEAST IOWA
  
CITY           SKY/WX    TMP DP  RH WIND       PRES   REMARKS
BURLINGTON     MOSUNNY   87  74  64 W8        29.97F HX  95           
FAIRFIELD *    SUNNY     88  75  66 W7G15     29.97S HX  97           
FORT MADISON * SUNNY     86  75  70 SW6       29.98F HX  95           
KEOKUK *       SUNNY     86  73  66 SW14      29.97F HX  93           
OTTUMWA        SUNNY     88  72  58 W6        29.96F HX  94           
WASHINGTON *     N/A    N/A N/A N/A MISG        N/A                   
$$

ABBREVIATIONS USED IN REMARKS
   TC - TEMPERATURES IN CELSIUS
  WCI - WIND CHILL INDEX
   HX - HEAT INDEX
  VSB - VISIBILITY  
$$